Regional Weather Roundup
Issued by NWS

Home | Current Version | Previous Version | Graphics & Text | Print | Product List | Glossary On
Versions: 1 2 3 4 5 6 7 8 9 10 11 12 13 14 15 16 17 18 19 20 21 22 23 24 25 26 27 28 29 30 31 32 33 34 35 36 37 38 39 40 41 42 43 44 45 46 47 48 49 50
000
ASUS43 KFSD 300402
RWRSD

WEATHER ROUNDUP FOR SOUTH DAKOTA
NATIONAL WEATHER SERVICE SIOUX FALLS SD
1100 PM CDT WED JUL 29 2015

NOTE: "FAIR" INDICATES FEW OR NO CLOUDS BELOW 12,000 FEET WITH NO
SIGNIFICANT WEATHER AND/OR OBSTRUCTIONS TO VISIBILITY.


SDZ001>005-009-010-012>017-300500-
NORTHWEST AND NORTH CENTRAL SOUTH DAKOTA

CITY           SKY/WX    TMP DP  RH WIND       PRES   REMARKS
BUFFALO          N/A     71  38  29 N9        30.11R
FAITH            N/A     71  42  35 E5        30.15R
MOBRIDGE       CLEAR     59  56  89 CALM      30.07R
$$

SDZ012>016-024>037-041>051-057-063-072>074-300500-
SOUTHWEST AND SOUTH CENTRAL SOUTH DAKOTA

CITY           SKY/WX    TMP DP  RH WIND       PRES   REMARKS
RAPID CTY ARPT CLEAR     61  49  64 NE9       30.20R
PIERRE         CLEAR     67  47  48 NW9       30.09R
CUSTER         CLEAR     56  40  55 N3        30.33R
ELLSWORTH AFB  CLEAR     70  48  45 E5        30.19R
PHILIP         CLEAR     65  54  67 CALM      30.14R
PINE RIDGE     CLEAR     60  52  74 E6        30.22R
WINNER         FAIR      70  51  51 S6        30.15R
$$

SDZ004>011-016>023-039-040-300500-
NORTHEAST SOUTH DAKOTA

CITY           SKY/WX    TMP DP  RH WIND       PRES   REMARKS
ABERDEEN       CLEAR     61  55  81 SW5       30.06R
WATERTOWN      CLEAR     62  55  77 W8        30.08R
BROOKINGS      CLEAR     70  54  56 W6        30.11S
SISSETON         N/A     66  55  67 W6        30.02S
$$

SDZ017-020-022-023-036>040-048>070-300500-
SOUTHEAST SOUTH DAKOTA

CITY           SKY/WX    TMP DP  RH WIND       PRES   REMARKS
SIOUX FALLS    CLEAR     65  59  81 W3        30.10R
HURON          CLEAR     67  58  72 CALM      30.08R
MITCHELL       CLEAR     66  56  70 N3        30.09R
YANKTON        CLEAR     73  54  49 SW8       30.10S
$$

ABBREVIATIONS USED IN REMARKS
   TC - TEMPERATURE IN CELSIUS
  WCI - WIND CHILL INDEX
   HX - HEAT INDEX
  VSB - VISIBILITY




USA.gov is the U.S. government's official web portal to all federal, state and local government web resources and services.